Wind_Speed
25 26 25 24 23 23 22 23 26 28 31 33 34 34 34 33 32 31 29 29 30 32 34 36 37 40 42 44 46 48 50 52 55 56 56 56 57 57 58 59 61 62 63
22 22 22 21 21 22 23 26 29 32 35 36 34 33 31 29 29 30 31 33 34 36 38 41 43 45 47 50 52 54 55 56 57 59 61 60 58 58 59 60 61 62 62
19 21 23 22 22 23 26 29 32 35 35 33 30 28 28 29 31 33 35 37 39 41 44 46 48 50 51 52 54 56 58 59 59 62 64 66 66 66 65 65 65 65 65
19 22 24 24 24 26 29 32 34 33 30 29 29 30 31 32 34 37 39 41 44 46 47 48 50 51 53 55 57 59 60 62 63 65 69 72 75 77 76 74 73 71 70
20 23 25 27 28 30 32 33 33 31 30 30 32 33 35 37 38 40 42 44 45 46 48 50 53 56 58 60 62 63 65 67 70 73 75 78 80 82 84 82 81 81 80
22 24 27 30 32 32 33 33 32 31 32 34 35 37 38 40 41 42 43 45 48 50 53 57 61 64 66 68 70 72 74 76 78 81 82 84 86 88 91 92 91 90 88
25 27 29 32 34 34 34 33 33 35 36 37 38 39 40 41 42 43 45 49 52 56 60 64 67 70 73 74 76 78 80 82 85 87 89 92 94 96 97 100 100 100 97
27 29 30 32 34 35 35 35 37 38 39 40 40 40 40 42 44 48 51 55 59 63 67 70 72 74 75 77 79 82 84 88 91 94 96 98 99 99 100 100 100 102 100
27 28 30 32 34 36 37 39 39 40 40 40 40 41 43 47 51 55 59 63 68 71 74 75 77 78 81 84 86 89 93 96 99 101 103 103 102 100 98 95 92 91 92
26 27 31 34 36 37 39 39 39 39 39 40 41 44 47 51 55 59 63 68 71 74 77 79 81 84 86 90 93 96 99 102 103 104 103 101 99 95 90 85 78 75 77
26 29 32 34 37 37 37 36 36 38 39 41 44 47 51 55 59 63 68 71 75 78 80 82 84 87 90 94 98 102 104 105 105 103 100 95 90 84 77 71 66 65 68
28 30 32 34 35 35 35 36 37 39 42 45 49 53 56 60 64 68 72 75 78 80 82 85 88 92 96 100 103 105 105 103 100 95 90 84 77 70 65 62 61 63 66
29 31 33 34 34 35 36 38 41 44 48 52 55 59 62 66 69 72 74 77 79 82 86 90 95 99 102 103 103 101 97 94 89 84 79 75 70 66 65 65 66 68 70
30 32 33 34 35 36 39 43 47 51 55 58 61 64 67 70 72 74 76 79 83 87 92 97 100 102 102 99 96 92 87 83 80 76 74 73 72 72 71 72 74 76 79
32 33 34 35 38 41 45 49 53 56 59 62 64 67 69 71 74 77 80 84 89 93 97 99 99 98 94 90 86 83 81 79 77 75 75 76 77 78 80 81 83 86 88
33 34 36 40 43 47 50 53 56 59 61 63 66 68 71 74 77 81 85 90 94 97 98 96 93 88 84 82 82 83 83 82 82 81 81 82 84 86 88 91 93 94 96
35 37 40 44 47 50 52 55 58 60 62 65 68 71 74 78 81 86 90 94 97 96 93 88 85 82 83 86 88 89 90 89 89 89 89 89 89 91 93 93 94 93 92
38 41 44 47 49 52 55 58 60 62 65 68 71 74 77 81 86 90 94 96 94 90 85 82 81 84 88 91 91 90 88 86 84 82 80 79 79 79 80 81 79 76 71
42 45 47 50 53 55 58 60 63 65 68 71 74 77 81 85 89 93 94 92 87 82 79 79 85 89 90 89 86 83 81 76 70 66 65 65 65 62 61 61 60 56 52
45 48 51 54 56 59 61 64 66 68 70 73 76 80 84 88 91 92 90 85 80 77 78 82 88 91 89 83 79 77 73 67 61 58 57 56 56 53 51 50 49 45 41
49 52 55 57 60 62 64 66 67 68 71 75 79 84 87 90 91 88 83 79 76 77 80 86 89 89 84 77 73 69 65 62 59 56 53 51 49 48 45 44 43 41 37
53 56 59 61 63 64 64 65 67 70 74 79 83 86 89 89 87 83 78 75 75 78 83 88 88 84 76 71 66 62 60 60 58 53 48 46 45 44 42 40 39 37 32
59 61 63 64 63 63 64 66 69 73 77 82 85 87 87 85 81 78 75 74 76 80 86 90 87 79 70 65 62 60 58 57 53 47 44 43 43 41 39 38 37 33 26
62 64 63 62 61 62 65 67 71 76 80 84 86 87 84 80 76 74 74 75 78 81 87 90 85 76 69 65 62 59 56 52 47 42 41 42 42 40 38 36 33 28 19
64 62 59 59 60 63 67 70 75 79 83 86 87 84 80 77 73 72 73 75 77 83 89 88 82 74 68 66 62 58 54 49 44 41 40 41 39 35 33 32 29 20 9
59 57 58 59 62 65 70 74 79 83 85 86 84 80 77 73 72 72 71 73 76 81 87 83 75 69 67 65 60 55 51 47 43 41 40 39 36 31 28 25 18 9 3
Wind_Direction
273 273 269 266 267 267 268 272 278 283 287 291 292 293 293 294 294 294 294 295 295 295 295 295 294 294 294 294 294 295 295 295 294 294 293 292 292 291 290 289 288 288 288
270 269 264 261 260 263 268 274 280 285 288 290 290 291 291 290 291 292 293 294 294 294 294 295 296 296 297 297 298 298 298 298 298 297 296 295 294 293 292 292 291 290 289
265 267 266 262 262 268 273 278 283 287 289 288 287 287 288 289 290 291 292 293 294 295 296 297 298 299 300 300 301 301 300 299 298 298 298 298 297 295 294 293 292 291 290
263 265 266 265 267 272 278 283 287 289 288 286 285 286 288 289 290 291 293 294 295 297 299 301 302 302 301 300 300 299 298 298 298 298 298 299 299 298 296 294 293 291 290
262 265 268 270 274 278 284 289 290 289 287 285 286 287 289 289 291 293 296 298 300 302 303 303 302 302 301 301 300 299 299 298 297 297 297 298 297 297 296 294 292 291 291
264 270 273 276 280 284 288 289 288 286 285 286 287 289 291 293 296 299 301 303 304 305 305 305 305 305 304 303 301 300 299 298 297 297 297 297 296 296 295 294 292 290 289
269 272 274 279 283 286 288 288 286 286 286 287 289 292 295 298 301 302 303 304 305 305 306 306 305 304 303 302 300 299 299 298 298 298 298 298 297 296 295 294 293 291 289
271 274 278 281 283 285 285 285 285 286 288 290 293 296 300 302 303 304 305 305 306 306 306 305 304 303 302 301 300 299 299 299 299 299 299 298 297 296 295 294 293 291 289
271 276 279 279 281 282 283 284 286 289 292 295 300 302 303 304 305 306 307 308 308 307 307 306 305 304 304 303 303 303 302 302 301 300 299 298 297 296 295 294 293 292 290
271 274 275 277 280 281 283 286 290 294 297 300 301 302 304 305 307 308 309 309 308 307 307 306 306 305 305 304 304 303 302 301 300 299 298 297 296 295 294 292 291 290 288
270 272 277 279 280 282 286 290 293 296 298 300 301 303 305 306 307 308 308 308 308 308 307 306 305 305 304 304 304 303 302 301 300 299 298 296 295 294 292 291 290 288 287
273 277 277 277 279 283 288 292 295 298 300 301 303 304 306 308 308 309 309 309 308 307 306 305 305 305 305 304 304 303 303 301 300 298 297 295 293 291 290 289 289 288 288
277 276 275 277 282 288 293 297 300 302 303 304 306 307 308 309 309 309 308 307 306 306 306 306 306 306 306 306 306 305 304 302 301 299 297 294 292 290 289 288 288 287 288
276 276 278 283 290 295 299 301 303 304 306 308 309 309 309 309 309 308 307 307 307 307 308 308 309 309 309 309 308 306 305 303 300 298 295 292 291 290 288 287 286 286 286
277 281 287 293 297 300 302 304 305 307 308 308 309 309 309 308 308 309 309 309 309 310 311 311 312 312 312 311 309 307 306 303 300 297 293 291 289 288 287 286 286 285 285
284 290 295 298 300 302 304 305 306 306 307 308 308 308 308 310 311 311 311 312 312 313 314 314 315 314 314 312 311 308 306 303 300 297 294 291 289 287 286 285 285 285 285
290 294 297 299 300 301 303 304 305 306 307 308 309 310 312 312 313 313 313 314 315 316 316 316 316 316 315 313 310 307 305 303 300 298 296 294 292 290 287 285 284 284 284
292 295 297 298 300 302 304 305 306 307 308 310 311 313 313 313 313 315 316 316 317 317 317 317 317 317 316 314 311 309 307 306 304 303 302 301 299 296 293 289 287 285 284
293 296 298 301 303 304 304 305 307 308 310 311 312 313 313 314 316 317 317 317 318 317 317 318 319 320 319 317 316 314 312 312 312 312 312 310 307 303 299 295 293 290 288
296 299 301 303 303 303 304 305 307 308 310 311 312 313 315 317 318 318 318 318 317 316 318 321 323 322 321 320 318 317 317 318 318 318 316 313 311 308 305 302 301 299 296
298 300 301 301 302 303 304 305 306 309 310 312 314 316 317 318 319 319 318 316 316 318 321 323 325 324 322 319 318 318 318 319 320 320 318 316 314 313 312 310 307 306 305
298 299 300 301 302 302 303 304 307 310 312 314 317 319 320 320 319 318 316 315 317 320 323 325 325 324 322 320 320 320 319 319 320 321 321 319 318 318 317 313 310 310 309
299 300 301 301 301 302 304 308 311 313 315 317 319 320 320 320 319 317 316 317 319 321 324 325 325 324 323 322 321 320 319 318 318 320 321 321 320 319 317 314 313 312 311
300 301 300 301 302 305 308 310 313 315 317 319 320 320 320 319 317 316 316 318 320 322 325 326 325 324 323 322 321 320 319 319 318 317 320 321 321 320 318 316 315 315 313
300 300 301 302 305 307 310 313 315 317 319 320 320 320 319 318 317 317 317 318 321 324 326 326 325 323 322 323 323 322 322 322 320 319 320 322 321 319 316 315 314 315 313
299 300 301 304 307 309 312 314 316 318 319 320 320 319 318 317 316 316 317 319 321 324 326 326 324 322 323 324 324 323 322 321 319 319 321 323 323 320 318 316 314 315 333
Height
5802 5801 5801 5801 5801 5801 5801 5800 5800 5798 5796 5794 5791 5788 5786 5783 5781 5779 5776 5774 5771 5769 5766 5763 5759 5755 5752 5748 5743 5739 5735 5731 5725 5721 5718 5716 5711 5707 5702 5697 5693 5689 5685
5796 5796 5796 5796 5796 5796 5796 5795 5794 5793 5790 5787 5784 5781 5779 5777 5774 5772 5770 5767 5764 5761 5758 5754 5750 5746 5742 5738 5732 5727 5722 5718 5712 5706 5702 5701 5701 5695 5689 5683 5678 5674 5669
5791 5792 5792 5792 5792 5792 5791 5790 5788 5787 5784 5781 5778 5776 5773 5771 5768 5766 5763 5760 5756 5753 5749 5745 5741 5736 5732 5727 5721 5716 5710 5706 5700 5692 5686 5682 5680 5677 5676 5671 5665 5659 5654
5785 5787 5788 5788 5787 5786 5785 5783 5781 5779 5777 5775 5773 5770 5767 5764 5762 5759 5756 5752 5749 5745 5740 5736 5731 5727 5722 5716 5711 5705 5698 5693 5687 5680 5672 5665 5659 5654 5652 5653 5648 5643 5638
5781 5782 5784 5784 5782 5780 5778 5776 5774 5772 5771 5769 5766 5764 5761 5758 5755 5751 5748 5744 5740 5736 5731 5726 5721 5716 5710 5704 5698 5691 5684 5677 5670 5664 5657 5649 5641 5632 5625 5626 5626 5621 5618
5776 5777 5778 5777 5775 5773 5771 5769 5768 5766 5763 5761 5759 5756 5753 5750 5746 5743 5739 5735 5730 5725 5720 5714 5708 5701 5694 5688 5681 5674 5666 5659 5651 5644 5636 5628 5621 5612 5601 5596 5597 5595 5595
5771 5771 5771 5770 5768 5766 5764 5763 5761 5758 5756 5753 5751 5748 5745 5741 5738 5734 5730 5725 5720 5714 5708 5701 5694 5687 5680 5672 5664 5657 5648 5639 5631 5622 5613 5604 5594 5584 5574 5564 5561 5560 5564
5765 5765 5765 5764 5761 5759 5758 5756 5753 5751 5749 5746 5743 5740 5736 5732 5728 5724 5719 5713 5707 5701 5694 5687 5679 5671 5663 5655 5647 5638 5628 5619 5609 5599 5589 5578 5568 5556 5545 5534 5526 5522 5526
5759 5760 5759 5757 5754 5753 5751 5749 5747 5744 5741 5738 5735 5731 5726 5722 5717 5711 5706 5699 5693 5686 5678 5670 5662 5653 5643 5634 5624 5615 5605 5595 5585 5574 5562 5551 5541 5530 5519 5508 5498 5489 5484
5754 5754 5752 5750 5748 5745 5743 5742 5740 5737 5733 5730 5726 5721 5715 5710 5705 5699 5692 5685 5678 5670 5661 5653 5643 5634 5623 5613 5602 5592 5581 5570 5559 5547 5535 5524 5513 5504 5495 5486 5477 5467 5455
5748 5747 5746 5744 5741 5738 5736 5735 5732 5729 5725 5720 5715 5710 5704 5699 5692 5685 5678 5670 5662 5653 5644 5634 5625 5614 5603 5591 5580 5569 5556 5544 5532 5520 5508 5497 5487 5479 5472 5464 5457 5450 5439
5742 5741 5739 5736 5734 5732 5730 5727 5723 5719 5715 5710 5704 5699 5693 5686 5679 5670 5662 5653 5644 5635 5626 5615 5605 5593 5581 5567 5555 5543 5529 5516 5504 5493 5481 5472 5463 5456 5449 5443 5437 5430 5422
5736 5734 5731 5729 5726 5724 5722 5718 5714 5709 5704 5699 5693 5686 5679 5672 5663 5655 5646 5637 5628 5618 5607 5595 5582 5569 5555 5540 5526 5512 5499 5486 5476 5466 5457 5449 5441 5436 5429 5423 5416 5410 5403
5728 5726 5723 5721 5719 5716 5712 5708 5703 5698 5692 5686 5680 5673 5664 5656 5648 5639 5630 5620 5610 5598 5586 5572 5557 5542 5526 5511 5497 5484 5473 5463 5454 5445 5436 5428 5420 5413 5407 5401 5394 5386 5380
5721 5719 5717 5714 5711 5707 5703 5698 5692 5686 5680 5673 5666 5658 5649 5641 5632 5622 5612 5601 5589 5575 5561 5546 5531 5515 5499 5484 5471 5460 5451 5441 5433 5425 5415 5406 5398 5389 5381 5374 5368 5360 5352
5714 5712 5709 5706 5702 5697 5693 5687 5680 5674 5666 5659 5651 5643 5635 5625 5615 5604 5593 5581 5567 5551 5536 5521 5506 5492 5476 5463 5450 5437 5427 5418 5408 5399 5391 5382 5374 5364 5354 5346 5337 5329 5321
5707 5704 5701 5696 5692 5687 5681 5674 5667 5660 5652 5645 5636 5628 5618 5607 5596 5584 5571 5558 5544 5529 5514 5499 5484 5471 5458 5443 5430 5415 5402 5392 5381 5370 5360 5352 5343 5331 5321 5313 5307 5301 5294
5698 5694 5690 5686 5680 5674 5668 5661 5654 5646 5638 5629 5620 5611 5601 5590 5577 5563 5548 5535 5521 5507 5493 5480 5466 5453 5438 5422 5406 5389 5376 5365 5354 5342 5331 5320 5310 5298 5286 5279 5275 5272 5268
5688 5684 5679 5674 5668 5661 5654 5647 5640 5631 5622 5613 5604 5594 5583 5571 5556 5541 5527 5514 5501 5488 5475 5462 5447 5431 5417 5399 5382 5365 5352 5343 5334 5324 5312 5298 5286 5276 5264 5254 5250 5248 5247
5678 5673 5667 5661 5655 5648 5641 5634 5626 5617 5607 5598 5588 5576 5564 5550 5535 5521 5507 5494 5482 5470 5458 5445 5428 5410 5394 5379 5363 5347 5334 5326 5319 5310 5299 5286 5272 5262 5252 5243 5237 5233 5232
5666 5661 5655 5649 5642 5635 5628 5620 5612 5603 5593 5582 5570 5557 5543 5529 5516 5502 5489 5476 5465 5454 5441 5428 5414 5395 5377 5362 5349 5335 5322 5311 5304 5296 5286 5274 5263 5253 5245 5236 5229 5223 5220
5654 5649 5642 5636 5629 5621 5614 5606 5598 5588 5577 5565 5552 5538 5524 5510 5497 5484 5472 5460 5447 5435 5422 5410 5398 5382 5364 5348 5336 5324 5312 5300 5291 5282 5273 5263 5253 5245 5237 5229 5222 5217 5213
5641 5634 5628 5621 5613 5606 5598 5590 5581 5570 5558 5546 5532 5520 5507 5493 5479 5467 5455 5444 5431 5418 5405 5392 5380 5367 5353 5338 5325 5314 5303 5292 5282 5273 5263 5253 5245 5237 5230 5222 5216 5211 5207
5626 5619 5612 5605 5598 5591 5583 5574 5565 5553 5541 5529 5516 5504 5491 5479 5465 5452 5440 5428 5416 5403 5390 5375 5363 5350 5338 5326 5314 5304 5293 5283 5273 5264 5256 5247 5238 5230 5223 5216 5210 5205 5202
5611 5604 5596 5590 5583 5575 5566 5557 5547 5536 5524 5512 5500 5487 5474 5462 5451 5440 5427 5415 5404 5387 5372 5359 5345 5333 5323 5311 5299 5288 5279 5270 5262 5255 5248 5241 5233 5226 5219 5212 5207 5203 5201
5595 5589 5582 5575 5567 5558 5549 5539 5529 5519 5508 5497 5484 5470 5458 5447 5436 5427 5419 5406 5392 5380 5362 5345 5331 5320 5308 5297 5287 5277 5268 5261 5253 5247 5240 5234 5226 5220 5214 5209 5205 5202 5202